This is the latest recevied weather packets stored in our database for station/object N2XGL-1. If no packets are shown the sender has not sent any weather packets the latest 10 day(s).
| Time | Temp. | Humidity | Pressure | Rain* | Wind** | Luminosity | Snow |
|---|---|---|---|---|---|---|---|
| 1777561549 | 6.67° C | 60% | 1017.3 hPa | 0 mm | - | - | - |
| 1777560950 | 6.67° C | 58% | 1017.4 hPa | 0 mm | - | - | - |
| 1777559874 | 6.67° C | 60% | 1017.5 hPa | 0 mm | - | - | - |
| 1777559299 | 6.67° C | 61% | 1017.5 hPa | 0 mm | - | - | - |
| 1777558746 | 6.11° C | 60% | 1017.3 hPa | 0 mm | - | - | - |
| 1777558254 | 6.11° C | 60% | 1017.3 hPa | 0 mm | - | - | - |
| 1777557699 | 6.11° C | 61% | 1017.3 hPa | 0 mm | - | - | - |
| 1777557109 | 6.11° C | 60% | 1017.3 hPa | 0 mm | - | - | - |
| 1777556609 | 6.11° C | 60% | 1017.2 hPa | 0 mm | - | - | - |
| 1777555529 | 6.11° C | 62% | 1017 hPa | 0 mm | - | - | - |
| 1777554984 | 5.56° C | 67% | 1016.9 hPa | 0 mm | - | - | - |
| 1777554469 | 5.56° C | 70% | 1016.8 hPa | 0 mm | - | - | - |
| 1777553879 | 5° C | 71% | 1016.6 hPa | 0 mm | - | - | - |
| 1777553338 | 5° C | 72% | 1016.7 hPa | 0 mm | - | - | - |
| 1777552748 | 5° C | 71% | 1016.6 hPa | 0 mm | - | - | - |
| 1777552152 | 5° C | 70% | 1016.5 hPa | 0 mm | - | - | - |
| 1777551664 | 5° C | 70% | 1016.4 hPa | 0 mm | - | - | - |
| 1777551128 | 5° C | 69% | 1016.4 hPa | 0 mm | - | - | - |
| 1777550609 | 5.56° C | 68% | 1016.3 hPa | 0 mm | - | - | - |
| 1777549599 | 5.56° C | 68% | 1016.3 hPa | 0 mm | - | - | - |
| 1777549014 | 5.56° C | 67% | 1016.4 hPa | 0 mm | - | - | - |
| 1777548418 | 6.11° C | 67% | 1016.3 hPa | 0 mm | - | - | - |
| 1777547834 | 6.11° C | 67% | 1016.4 hPa | 0 mm | - | - | - |
| 1777547259 | 6.11° C | 67% | 1016.3 hPa | 0 mm | - | - | - |
| 1777546774 | 6.11° C | 67% | 1016.3 hPa | 0 mm | - | - | - |
* Rain latest hour (hover to see other rain measurements)
** Current wind speed in m/s (hover to see current wind gust speed)